SCP
0 0 0 0 0 -0 0 0 0 0 0 0 0 0 0 0 0 0 0 0 0 0 0 0 0 0 0 0 0 0 0 0 0 0 0 0 0 0 0 0 0 0 0 0 0
0 0 0 0 0 0 0 0 0 0 0 0 0 0 0 0 0 -0 0 0 0 -0 0 0 0 0 0 0 0 0 0 0 0 0 0 0 0 0 0 0 0 0 0 0 0
0 0 0 0 0 0 0 0 0 0 0 0 0 0 0 0 0 0 0 0 -0 -0 0 0 0 0 0 0 0 0 0 0 0 0 0 0 0 0 0 0 0 0 0 0 0
0 0 0 0 0 0 0 0 0 0 0 0 0 0 0 0 0 0 0 0 0 0 0 0 0 0 0 0 0 0 0 0 0 0 0 0 0 0 0 -0 0 0 0 0 0
0 0 0 0 0 0 0 0 0 0 0 0 0 0 0 0 0 0 0 0 0 0 0 0 0 0 0 0 0 0 0 0 0 0 0 0 0 0 0 -0 0 0 0 0 0
0 0 0 0 0 0 0 0 0 0 0 0 0 0 0 0 0 0 0 0 0 0 0 0 0 0 0 0 0 0 0 0 0 0 0 0 0 0 0 0 0 0 0 0 0
0 0 0 0 0 0 0 0 0 0 0 0 0 0 0 0 0 0 0 0 0 0 0 0 0 0 0 0 0 0 0 0 0 0 0 0 0 0 -0 0 0 0 0 0 0
0 0 0 0 0 0 0 0 0 0 0 0 0 0 0 0 0 0 0 0 0 0 0 0 0 0 0 0 0 0 0 0 0 0 0 0 0 0 0 0 0 0 0 0 0
-0 0 0 0 -0 0 0 0 0 0 0 0 0 0 0 0 0 0 0 0 0 0 0 0 0 0 0 0 0 0 0 0 0 0 0 0 0 0 0 0 0 0 0 0 0
-0 0 0 0 -0 0 0 0 0 0 0 0 0 0 0 0 0 0 0 0 0 0 0 0 0 0 0 0 0 0 0 0 0 0 0 0 0 0 0 0 0 0 0 0 0
0 0 0 0 -0 0 0 0 0 0 0 0 0 0 0 0 0 0 0 0 0 0 0 0 0 0 0 0 0 0 0 0 0 0 0 0 0 0 0 0 0 0 0 0 0
0 0 0 0 0 0 0 0 0 0 0 0 0 0 0 0 0 0 0 0 0 0 0 0 0 0 0 0 0 0 0 0 0 0 0 0 0 0 0 0 0 0 0 0 0
0 0 0 0 0 0 0 0 0 0 0 0 0 0 0 0 0 0 0 0 0 0 0 0 0 0 0 0 0 0 0 0 0 0 0 0 0 0 0 0 0 0 0 0 0
0 0 0 0 0 0 0 0 0 0 0 0 0 0 0 0 0 0 0 0 0 0 0 0 0 0 0 0 0 0 0 0 0 0 0 0 0 0 0 0 0 0 0 0 0
0 0 0 0 0 0 0 0 0 0 0 0 0 0 0 0 0 0 0 0 0 0 0 0 0 0 0 0 0 0 0 0 0 0 0 0 0 0 0 0 0 0 0 0 0
0 0 0 0 0 0 0 0 0 0 0 0 0 0 0 0 0 0 0 0 0 0 0 0 0 0 0 0 0 0 0 0 0 0 0 0 0 0 0 0 0 0 0 0 0
0 0 0 0 0 0 0 0 0 0 0 0 0 0 0 0 0 0 0 0 0 0 0 0 0 0 0 0 0 0 0 0 0 0 0 0 0 0 0 0 0 0 0 0 0
0 0 0 0 0 0 0 0 0 0 0 0 0 0 0 0 0 0 0 0 0 0 0 0 0 0 0 0 0 0 0 0 0 0 0 0 0 0 0 0 0 0 0 0 0
-0 0 0 0 0 0 0 0 0 0 0 0 0 0 0 0 0 0 0 0 0 0 0 0 0 0 0 0 0 0 0 0 0 0 0 0 0 0 0 0 0 0 0 0 0
-0 0 0 0 0 0 0 0 0 0 0 0 0 0 0 0 0 0 0 0 0 0 0 0 0 0 0 0 0 0 0 0 0 0 0 0 0 0 0 0 0 0 0 0 0
-0 0 0 0 0 0 0 0 0 0 0 0 0 0 0 0 0 0 0 0 0 0 0 0 0 0 0 0 0 0 0 0 0 0 0 0 0 0 0 0 0 0 0 0 0
-0 0 0 0 0 0 0 0 0 0 0 0 0 0 0 0 0 0 0 0 0 0 0 0 0 0 0 0 0 0 0 0 0 0 0 0 0 0 0 0 0 0 0 0 0
-0 0 0 0 0 0 0 0 0 0 0 0 0 0 0 0 0 0 0 0 0 0 0 0 0 0 0 0 0 0 0 0 0 0 0 0 0 0 0 0 0 0 0 0 0
-0 0 0 0 0 0 0 0 0 0 0 0 0 0 0 0 0 0 0 0 0 0 0 0 0 0 0 0 0 0 0 0 0 0 0 0 0 0 0 0 0 0 0 0 0
0 0 0 0 0 0 0 0 0 0 0 0 0 0 0 0 0 0 0 0 0 0 0 0 0 0 0 0 0 0 0 0 0 0 0 0 0 0 0 0 0 0 0 0 0
0 0 0 0 0 0 0 0 0 0 0 0 0 0 0 0 0 0 0 0 0 0 0 0 0 0 0 0 0 0 0 0 0 0 0 0 0 0 0 0 0 0 0 0 0
0 0 0 0 0 0 0 0 0 0 0 0 0 0 0 0 0 0 0 0 0 0 0 0 0 0 0 0 0 0 0 0 0 0 0 0 0 0 0 0 0 0 0 0 0
Wind_Speed_500mb
26 14 6 37 21 12 21 17 12 7 5 11 21 24 27 31 31 39 35 28 38 28 26 29 22 19 23 18 12 7 10 17 21 17 4 7 7 5 7 10 6 8 5 11 11
37 24 16 22 34 22 22 22 15 13 10 6 12 20 22 26 25 35 29 30 35 21 28 38 32 27 20 16 12 18 15 19 3 10 6 5 6 3 4 11 14 16 13 23 19
37 41 24 25 35 32 23 25 23 18 16 13 12 13 19 17 7 21 34 29 35 32 24 24 26 28 19 12 17 11 11 10 7 8 5 10 12 7 10 16 22 17 13 22 17
32 43 36 21 13 42 36 31 28 27 20 17 15 12 13 25 13 16 27 39 38 36 33 31 31 22 16 14 21 10 24 18 5 5 6 9 13 16 18 33 20 18 17 18 20
24 37 41 28 19 26 43 37 30 30 24 21 19 15 16 17 12 13 27 31 39 39 36 35 37 25 17 24 17 28 17 12 23 12 14 22 26 27 35 37 34 29 26 26 27
32 28 37 37 21 27 30 30 37 32 27 20 20 16 15 21 17 13 23 36 37 41 33 29 24 23 21 9 23 3 24 23 12 16 14 12 26 4 22 12 11 12 16 17 18
48 19 36 31 34 30 36 43 46 35 29 25 18 17 14 10 19 24 29 29 36 25 33 27 18 22 13 10 9 8 14 17 20 11 6 7 19 25 35 15 13 9 9 11 16
47 34 36 37 41 29 52 29 46 37 30 25 19 14 7 18 17 26 31 33 33 35 24 25 20 18 7 9 8 9 11 14 13 7 3 6 14 14 4 2 11 16 14 10 10
29 28 35 34 36 40 39 42 39 39 30 26 15 13 9 21 24 30 27 34 37 31 27 25 19 12 10 10 8 11 10 18 11 6 3 15 7 10 5 24 27 24 18 15 14
33 38 34 36 32 44 27 31 40 35 31 21 14 11 14 17 29 31 33 36 23 32 23 18 15 17 16 16 11 12 10 9 10 6 6 12 23 25 25 27 20 15 13 16 21
26 40 34 32 33 35 27 33 20 15 46 9 11 0 21 28 35 26 35 26 28 33 19 30 18 24 32 28 7 4 8 11 3 6 7 15 19 25 25 14 19 24 25 27 29
27 32 33 35 29 29 36 11 16 12 9 7 14 7 19 26 16 26 44 20 28 27 19 11 25 20 10 16 20 11 6 6 3 1 5 16 24 7 16 21 30 33 35 38 35
24 33 31 28 23 27 42 13 27 25 8 8 16 11 18 19 15 32 30 18 26 25 28 17 3 18 22 17 17 19 18 5 7 7 13 17 14 19 17 28 34 39 37 39 42
19 21 21 15 12 24 44 20 20 20 6 10 14 10 17 14 10 21 24 13 10 26 25 12 7 21 25 25 23 22 19 21 16 6 10 3 4 5 14 15 29 40 41 41 43
6 9 13 21 9 20 35 28 16 17 14 23 11 14 18 9 37 16 23 4 18 18 11 8 13 19 26 23 23 6 7 18 16 18 11 12 7 6 7 4 23 36 39 41 40
6 8 11 16 15 21 37 30 19 5 9 11 7 19 19 15 6 22 16 8 11 11 5 9 2 7 3 7 22 19 15 12 6 6 9 9 8 10 5 8 18 29 34 38 39
5 8 18 22 15 27 52 41 3 9 5 11 9 16 26 15 13 28 27 17 14 13 19 7 8 4 5 16 11 15 19 5 7 9 7 3 7 11 8 14 17 22 30 34 34
9 11 18 17 24 41 52 14 12 4 4 13 18 30 10 17 6 24 31 22 10 8 23 18 10 18 18 10 11 27 17 8 10 9 7 3 11 7 14 14 17 22 25 30 34
8 7 12 16 19 27 14 9 3 10 12 25 30 9 10 16 15 11 25 22 21 15 5 18 12 3 1 1 5 12 12 6 8 3 3 10 8 12 14 16 20 26 28 31 32
4 6 3 14 17 14 6 12 3 6 9 31 13 15 10 15 17 16 23 14 11 17 9 2 9 3 5 4 4 4 6 7 4 7 9 8 5 5 16 11 17 23 28 28 29
2 1 5 16 7 2 12 7 8 5 10 2 13 15 13 18 12 23 30 8 8 19 8 13 5 6 7 15 20 8 6 6 5 4 4 4 6 9 15 12 15 20 24 26 30
3 2 3 9 5 5 7 7 5 6 10 12 10 16 16 17 6 5 7 10 9 7 16 8 2 7 9 6 8 8 15 21 8 9 4 4 5 9 16 15 16 18 20 24 27
5 6 6 7 6 5 6 9 14 9 12 8 6 8 13 7 8 7 8 10 15 6 9 15 4 8 3 3 2 10 15 11 2 3 10 7 6 11 17 18 14 16 18 20 24
5 3 9 9 7 9 16 6 7 13 10 12 8 5 14 9 12 8 5 10 7 15 20 6 3 3 3 8 2 10 17 18 20 9 8 15 13 21 18 15 16 15 15 18 23
7 4 4 5 11 15 9 5 6 10 13 19 8 13 7 9 6 6 6 5 14 20 10 5 4 4 4 6 8 7 5 14 25 25 12 8 7 21 20 16 15 12 11 15 19
6 8 13 11 6 13 13 7 9 9 11 8 9 12 13 11 6 9 8 6 5 8 5 3 4 3 4 6 5 4 4 1 1 2 10 12 9 15 21 20 15 12 11 14 18
15 26 10 12 6 5 6 8 6 11 20 19 18 25 27 14 21 24 25 20 11 4 4 3 6 3 7 3 6 7 6 3 6 7 5 10 9 20 18 15 12 12 13 12 15
Wind_Direction_500mb
251 245 170 223 249 234 169 161 172 166 169 208 209 203 207 214 214 220 230 223 222 198 189 183 180 178 185 196 210 238 238 224 218 213 209 140 216 184 244 260 209 227 200 221 235
258 256 263 217 220 230 201 176 185 193 192 203 220 208 201 206 216 229 227 208 208 169 181 173 171 173 188 190 200 219 233 250 291 260 275 163 253 206 249 232 243 239 235 246 256
260 260 262 246 227 218 201 181 193 200 199 209 228 211 184 194 217 244 218 191 201 196 188 177 171 173 196 172 193 197 237 261 262 270 298 298 266 244 268 259 248 246 266 238 249
255 261 251 247 229 209 204 203 208 205 205 213 217 214 172 175 208 200 199 195 190 184 181 176 175 173 196 195 203 247 232 254 318 307 317 279 311 264 258 257 288 283 276 249 245
252 257 262 249 236 232 215 215 208 204 206 215 213 197 167 205 240 184 204 196 188 182 181 183 179 178 191 208 183 229 237 242 252 272 277 290 270 280 274 268 276 269 263 259 258
263 259 258 244 215 201 236 191 208 206 201 208 210 203 199 224 207 179 168 172 180 177 187 190 192 180 197 205 221 313 253 255 244 239 239 266 278 31 266 208 277 269 261 263 260
251 234 261 256 225 196 187 191 196 204 200 196 211 204 206 208 185 168 165 166 174 171 181 180 174 171 163 179 231 267 268 224 223 234 242 275 263 226 258 245 282 301 273 270 257
248 220 254 261 243 213 213 200 191 197 198 190 211 206 221 197 169 171 169 166 175 176 182 178 161 178 202 144 166 227 240 240 96 175 197 231 259 124 87 117 346 320 306 279 270
254 236 238 256 255 225 202 213 198 197 194 188 201 194 198 179 169 169 166 166 168 174 174 176 154 177 163 199 196 202 266 214 150 165 221 222 275 78 68 324 323 322 318 317 327
244 231 223 248 255 228 209 200 204 197 193 191 209 207 199 185 173 163 165 155 146 157 135 174 183 189 204 201 209 208 229 242 234 92 227 260 268 294 317 317 325 2 15 24 28
245 221 201 234 251 223 199 167 169 184 175 194 199 113 142 155 157 160 157 147 153 165 170 184 179 200 204 212 112 107 230 253 45 53 312 272 285 299 314 41 42 40 33 28 21
237 183 209 225 242 216 191 202 163 166 157 167 156 132 147 148 129 158 150 153 173 181 151 163 224 207 170 177 199 213 160 190 169 172 302 300 292 360 102 78 54 37 33 22 16
182 171 206 220 226 206 190 185 146 155 98 157 161 158 158 149 141 162 163 159 186 165 188 197 76 169 190 195 209 231 234 237 292 326 243 285 252 155 136 75 52 40 31 24 18
140 197 213 215 198 193 189 166 145 133 126 172 194 161 172 157 105 155 165 153 176 189 184 230 109 190 193 204 203 220 217 235 239 262 260 314 267 206 159 105 43 29 23 17 17
173 189 198 179 189 170 188 167 121 132 189 149 159 171 162 173 132 165 168 148 160 153 188 136 170 172 200 201 191 193 153 197 212 224 288 206 251 132 157 180 20 18 17 16 21
218 213 188 180 158 191 172 158 143 176 190 159 125 169 147 152 92 143 158 88 108 130 119 94 115 188 116 96 197 137 126 121 167 218 244 187 241 147 45 355 355 13 17 19 22
59 169 169 155 173 164 154 161 159 253 206 137 145 171 148 147 126 163 168 163 162 157 183 122 155 141 170 114 128 190 177 138 194 201 234 131 214 57 82 37 21 12 20 22 29
66 137 171 165 156 165 153 142 219 37 197 148 147 154 153 137 142 168 168 181 207 241 159 174 202 187 178 226 172 198 216 224 211 194 158 142 220 111 89 66 53 45 35 33 32
100 125 169 177 168 177 174 170 159 156 165 152 145 140 146 140 138 146 188 190 193 211 235 185 159 101 222 240 167 172 222 22 108 98 269 177 112 132 131 76 55 48 42 36 34
78 109 94 174 181 172 173 92 133 23 283 153 145 185 144 142 139 158 168 207 210 203 262 96 122 209 101 222 141 277 147 173 230 192 215 176 232 80 195 55 52 44 39 36 37
67 131 236 204 180 252 168 110 145 43 341 355 139 158 175 156 167 179 175 136 160 208 208 321 318 124 169 211 188 165 189 226 253 291 249 196 131 16 97 77 67 49 41 38 36
58 73 297 186 164 318 114 101 31 3 16 67 37 63 154 125 106 126 122 43 342 209 179 163 190 164 186 40 339 301 238 204 221 189 249 1 126 93 100 90 85 74 54 43 41
89 85 63 159 174 127 81 75 44 28 32 50 78 47 64 81 107 74 86 20 18 58 169 164 175 138 135 199 166 231 208 238 224 334 197 196 130 133 125 113 86 78 64 54 47
117 129 58 70 6 136 115 65 129 40 70 54 69 111 117 77 54 116 105 35 29 24 31 47 155 297 281 47 356 187 203 209 222 239 231 235 142 181 167 140 119 91 66 48 38
74 88 113 89 42 91 88 72 68 45 37 24 66 63 108 109 98 96 75 130 48 5 37 60 125 104 69 58 39 60 132 205 221 233 255 332 74 161 160 141 117 102 70 54 40
113 139 96 80 7 58 24 42 98 104 6 22 74 62 67 93 1 146 127 37 67 21 69 337 112 107 79 76 53 98 87 64 10 330 266 152 115 101 118 131 122 96 77 56 42
107 115 105 39 42 61 22 124 122 137 48 74 89 92 76 92 78 82 81 84 82 79 89 66 139 186 121 60 135 228 164 148 107 63 345 227 89 142 144 134 125 104 78 57 36
Wind_Speed_850mb
26 14 6 37 21 12 21 17 12 7 5 11 21 24 27 31 31 39 35 28 38 28 26 29 22 19 23 18 12 7 10 17 21 17 4 7 7 5 7 10 6 8 5 11 11
37 24 16 22 34 22 22 22 15 13 10 6 12 20 22 26 25 35 29 30 35 21 28 38 32 27 20 16 12 18 15 19 3 10 6 5 6 3 4 11 14 16 13 23 19
37 41 24 25 35 32 23 25 23 18 16 13 12 13 19 17 7 21 34 29 35 32 24 24 26 28 19 12 17 11 11 10 7 8 5 10 12 7 10 16 22 17 13 22 17
32 43 36 21 13 42 36 31 28 27 20 17 15 12 13 25 13 16 27 39 38 36 33 31 31 22 16 14 21 10 24 18 5 5 6 9 13 16 18 33 20 18 17 18 20
24 37 41 28 19 26 43 37 30 30 24 21 19 15 16 17 12 13 27 31 39 39 36 35 37 25 17 24 17 28 17 12 23 12 14 22 26 27 35 37 34 29 26 26 27
32 28 37 37 21 27 30 30 37 32 27 20 20 16 15 21 17 13 23 36 37 41 33 29 24 23 21 9 23 3 24 23 12 16 14 12 26 4 22 12 11 12 16 17 18
48 19 36 31 34 30 36 43 46 35 29 25 18 17 14 10 19 24 29 29 36 25 33 27 18 22 13 10 9 8 14 17 20 11 6 7 19 25 35 15 13 9 9 11 16
47 34 36 37 41 29 52 29 46 37 30 25 19 14 7 18 17 26 31 33 33 35 24 25 20 18 7 9 8 9 11 14 13 7 3 6 14 14 4 2 11 16 14 10 10
29 28 35 34 36 40 39 42 39 39 30 26 15 13 9 21 24 30 27 34 37 31 27 25 19 12 10 10 8 11 10 18 11 6 3 15 7 10 5 24 27 24 18 15 14
33 38 34 36 32 44 27 31 40 35 31 21 14 11 14 17 29 31 33 36 23 32 23 18 15 17 16 16 11 12 10 9 10 6 6 12 23 25 25 27 20 15 13 16 21
26 40 34 32 33 35 27 33 20 15 46 9 11 0 21 28 35 26 35 26 28 33 19 30 18 24 32 28 7 4 8 11 3 6 7 15 19 25 25 14 19 24 25 27 29
27 32 33 35 29 29 36 11 16 12 9 7 14 7 19 26 16 26 44 20 28 27 19 11 25 20 10 16 20 11 6 6 3 1 5 16 24 7 16 21 30 33 35 38 35
24 33 31 28 23 27 42 13 27 25 8 8 16 11 18 19 15 32 30 18 26 25 28 17 3 18 22 17 17 19 18 5 7 7 13 17 14 19 17 28 34 39 37 39 42
19 21 21 15 12 24 44 20 20 20 6 10 14 10 17 14 10 21 24 13 10 26 25 12 7 21 25 25 23 22 19 21 16 6 10 3 4 5 14 15 29 40 41 41 43
6 9 13 21 9 20 35 28 16 17 14 23 11 14 18 9 37 16 23 4 18 18 11 8 13 19 26 23 23 6 7 18 16 18 11 12 7 6 7 4 23 36 39 41 40
6 8 11 16 15 21 37 30 19 5 9 11 7 19 19 15 6 22 16 8 11 11 5 9 2 7 3 7 22 19 15 12 6 6 9 9 8 10 5 8 18 29 34 38 39
5 8 18 22 15 27 52 41 3 9 5 11 9 16 26 15 13 28 27 17 14 13 19 7 8 4 5 16 11 15 19 5 7 9 7 3 7 11 8 14 17 22 30 34 34
9 11 18 17 24 41 52 14 12 4 4 13 18 30 10 17 6 24 31 22 10 8 23 18 10 18 18 10 11 27 17 8 10 9 7 3 11 7 14 14 17 22 25 30 34
8 7 12 16 19 27 14 9 3 10 12 25 30 9 10 16 15 11 25 22 21 15 5 18 12 3 1 1 5 12 12 6 8 3 3 10 8 12 14 16 20 26 28 31 32
4 6 3 14 17 14 6 12 3 6 9 31 13 15 10 15 17 16 23 14 11 17 9 2 9 3 5 4 4 4 6 7 4 7 9 8 5 5 16 11 17 23 28 28 29
2 1 5 16 7 2 12 7 8 5 10 2 13 15 13 18 12 23 30 8 8 19 8 13 5 6 7 15 20 8 6 6 5 4 4 4 6 9 15 12 15 20 24 26 30
3 2 3 9 5 5 7 7 5 6 10 12 10 16 16 17 6 5 7 10 9 7 16 8 2 7 9 6 8 8 15 21 8 9 4 4 5 9 16 15 16 18 20 24 27
5 6 6 7 6 5 6 9 14 9 12 8 6 8 13 7 8 7 8 10 15 6 9 15 4 8 3 3 2 10 15 11 2 3 10 7 6 11 17 18 14 16 18 20 24
5 3 9 9 7 9 16 6 7 13 10 12 8 5 14 9 12 8 5 10 7 15 20 6 3 3 3 8 2 10 17 18 20 9 8 15 13 21 18 15 16 15 15 18 23
7 4 4 5 11 15 9 5 6 10 13 19 8 13 7 9 6 6 6 5 14 20 10 5 4 4 4 6 8 7 5 14 25 25 12 8 7 21 20 16 15 12 11 15 19
6 8 13 11 6 13 13 7 9 9 11 8 9 12 13 11 6 9 8 6 5 8 5 3 4 3 4 6 5 4 4 1 1 2 10 12 9 15 21 20 15 12 11 14 18
15 26 10 12 6 5 6 8 6 11 20 19 18 25 27 14 21 24 25 20 11 4 4 3 6 3 7 3 6 7 6 3 6 7 5 10 9 20 18 15 12 12 13 12 15
Wind_Direction_850mb
251 245 170 223 249 234 169 161 172 166 169 208 209 203 207 214 214 220 230 223 222 198 189 183 180 178 185 196 210 238 238 224 218 213 209 140 216 184 244 260 209 227 200 221 235
258 256 263 217 220 230 201 176 185 193 192 203 220 208 201 206 216 229 227 208 208 169 181 173 171 173 188 190 200 219 233 250 291 260 275 163 253 206 249 232 243 239 235 246 256
260 260 262 246 227 218 201 181 193 200 199 209 228 211 184 194 217 244 218 191 201 196 188 177 171 173 196 172 193 197 237 261 262 270 298 298 266 244 268 259 248 246 266 238 249
255 261 251 247 229 209 204 203 208 205 205 213 217 214 172 175 208 200 199 195 190 184 181 176 175 173 196 195 203 247 232 254 318 307 317 279 311 264 258 257 288 283 276 249 245
252 257 262 249 236 232 215 215 208 204 206 215 213 197 167 205 240 184 204 196 188 182 181 183 179 178 191 208 183 229 237 242 252 272 277 290 270 280 274 268 276 269 263 259 258
263 259 258 244 215 201 236 191 208 206 201 208 210 203 199 224 207 179 168 172 180 177 187 190 192 180 197 205 221 313 253 255 244 239 239 266 278 31 266 208 277 269 261 263 260
251 234 261 256 225 196 187 191 196 204 200 196 211 204 206 208 185 168 165 166 174 171 181 180 174 171 163 179 231 267 268 224 223 234 242 275 263 226 258 245 282 301 273 270 257
248 220 254 261 243 213 213 200 191 197 198 190 211 206 221 197 169 171 169 166 175 176 182 178 161 178 202 144 166 227 240 240 96 175 197 231 259 124 87 117 346 320 306 279 270
254 236 238 256 255 225 202 213 198 197 194 188 201 194 198 179 169 169 166 166 168 174 174 176 154 177 163 199 196 202 266 214 150 165 221 222 275 78 68 324 323 322 318 317 327
244 231 223 248 255 228 209 200 204 197 193 191 209 207 199 185 173 163 165 155 146 157 135 174 183 189 204 201 209 208 229 242 234 92 227 260 268 294 317 317 325 2 15 24 28
245 221 201 234 251 223 199 167 169 184 175 194 199 113 142 155 157 160 157 147 153 165 170 184 179 200 204 212 112 107 230 253 45 53 312 272 285 299 314 41 42 40 33 28 21
237 183 209 225 242 216 191 202 163 166 157 167 156 132 147 148 129 158 150 153 173 181 151 163 224 207 170 177 199 213 160 190 169 172 302 300 292 360 102 78 54 37 33 22 16
182 171 206 220 226 206 190 185 146 155 98 157 161 158 158 149 141 162 163 159 186 165 188 197 76 169 190 195 209 231 234 237 292 326 243 285 252 155 136 75 52 40 31 24 18
140 197 213 215 198 193 189 166 145 133 126 172 194 161 172 157 105 155 165 153 176 189 184 230 109 190 193 204 203 220 217 235 239 262 260 314 267 206 159 105 43 29 23 17 17
173 189 198 179 189 170 188 167 121 132 189 149 159 171 162 173 132 165 168 148 160 153 188 136 170 172 200 201 191 193 153 197 212 224 288 206 251 132 157 180 20 18 17 16 21
218 213 188 180 158 191 172 158 143 176 190 159 125 169 147 152 92 143 158 88 108 130 119 94 115 188 116 96 197 137 126 121 167 218 244 187 241 147 45 355 355 13 17 19 22
59 169 169 155 173 164 154 161 159 253 206 137 145 171 148 147 126 163 168 163 162 157 183 122 155 141 170 114 128 190 177 138 194 201 234 131 214 57 82 37 21 12 20 22 29
66 137 171 165 156 165 153 142 219 37 197 148 147 154 153 137 142 168 168 181 207 241 159 174 202 187 178 226 172 198 216 224 211 194 158 142 220 111 89 66 53 45 35 33 32
100 125 169 177 168 177 174 170 159 156 165 152 145 140 146 140 138 146 188 190 193 211 235 185 159 101 222 240 167 172 222 22 108 98 269 177 112 132 131 76 55 48 42 36 34
78 109 94 174 181 172 173 92 133 23 283 153 145 185 144 142 139 158 168 207 210 203 262 96 122 209 101 222 141 277 147 173 230 192 215 176 232 80 195 55 52 44 39 36 37
67 131 236 204 180 252 168 110 145 43 341 355 139 158 175 156 167 179 175 136 160 208 208 321 318 124 169 211 188 165 189 226 253 291 249 196 131 16 97 77 67 49 41 38 36
58 73 297 186 164 318 114 101 31 3 16 67 37 63 154 125 106 126 122 43 342 209 179 163 190 164 186 40 339 301 238 204 221 189 249 1 126 93 100 90 85 74 54 43 41
89 85 63 159 174 127 81 75 44 28 32 50 78 47 64 81 107 74 86 20 18 58 169 164 175 138 135 199 166 231 208 238 224 334 197 196 130 133 125 113 86 78 64 54 47
117 129 58 70 6 136 115 65 129 40 70 54 69 111 117 77 54 116 105 35 29 24 31 47 155 297 281 47 356 187 203 209 222 239 231 235 142 181 167 140 119 91 66 48 38
74 88 113 89 42 91 88 72 68 45 37 24 66 63 108 109 98 96 75 130 48 5 37 60 125 104 69 58 39 60 132 205 221 233 255 332 74 161 160 141 117 102 70 54 40
113 139 96 80 7 58 24 42 98 104 6 22 74 62 67 93 1 146 127 37 67 21 69 337 112 107 79 76 53 98 87 64 10 330 266 152 115 101 118 131 122 96 77 56 42
107 115 105 39 42 61 22 124 122 137 48 74 89 92 76 92 78 82 81 84 82 79 89 66 139 186 121 60 135 228 164 148 107 63 345 227 89 142 144 134 125 104 78 57 36